Weather History for KCHA - August, 2013

Change the Weather History Date:

Sunday, August 11, 2013

  Actual Average Record
Temperature  
Mean Temperature 81 °F 80 °F  
Max Temperature 88 °F 90 °F 99 °F (1957)
Min Temperature 74 °F 70 °F 56 °F (1967)
Degree Days  
Heating Degree Days 0 0  
Month to date heating degree days 0 0  
Since 1 June heating degree days 0 2  
Since 1 July heating degree days 0 0  
Cooling Degree Days 16 15  
Month to date cooling degree days 159 165  
Year to date cooling degree days 1139 1169  
Since 1 June cooling degree days 963 973  
Growing Degree Days 30 (Base 50)    
Moisture  
Dew Point 73 °F    
Average Humidity 80    
Maximum Humidity 100    
Minimum Humidity 59    
Precipitation  
Precipitation 1.06 in 0.11 in 1.42 in (1974)
Month to date precipitation 2.32 1.36  
Year to date precipitation 49.95 33.14  
Snow  
Snow 0.00 in 0.00 in - ()
Month to date snowfall 0.0 0.0  
Since 1 June snowfall 0.0 0.0  
Since 1 July snowfall 0.0 0.0  
Snow Depth 0.00 in    
Sea Level Pressure  
Sea Level Pressure 30.12 in    
Wind  
Wind Speed 2 mph (SSE)    
Max Wind Speed 20 mph    
Max Gust Speed 25 mph    
Visibility 6 miles    
Events Rain , Thunderstorm    
T = Trace of Precipitation, MM = Missing Value Source: NWS Daily Summary

Daily Weather History Graph

Daily Weather History Graph

Search for Another Location

Airport or City:

Trip Planner

Search our weather history database for the weather conditions in past years. The results will help you decide how hot, cold, wet, or windy it might be!

Date:

Astronomy

Aug. 11, 2013 Rise Set
Actual Time 6:57 AM EDT 8:33 PM EDT
Civil Twilight 6:30 AM EDT 9:00 PM EDT
Nautical Twilight 5:58 AM EDT 9:32 PM EDT
Astronomical Twilight 5:23 AM EDT 10:07 PM EDT
Moon 11:31 AM EDT (8/11) 11:03 PM EDT (8/11)
Length of Visible Light 14h 29m
Length of Day
13h 35m
Waxing Crescent, 22% of the Moon is Illuminated
Aug 11
Waxing Crescent
Aug 14
First Quarter
Aug 20
Full
Aug 28
Last Quarter
Sep 5
New

Hourly Weather History & Observations

Time (EDT) Temp. Heat Index Dew Point Humidity Pressure Visibility Wind Dir Wind Speed Gust Speed Precip Events Conditions
12:53 AM 75.9 °F - 73.9 °F 94% 30.10 in 10.0 mi Calm Calm - N/A   Clear
1:53 AM 75.9 °F - 73.9 °F 94% 30.11 in 10.0 mi Calm Calm - N/A   Clear
2:53 AM 75.9 °F - 73.0 °F 91% 30.11 in 10.0 mi Calm Calm - N/A   Partly Cloudy
3:13 AM 75.2 °F - 73.4 °F 94% 30.13 in 10.0 mi Calm Calm - N/A   Mostly Cloudy
3:53 AM 75.9 °F - 73.9 °F 94% 30.10 in 10.0 mi Calm Calm - N/A   Overcast
4:53 AM 75.0 °F - 73.0 °F 94% 30.11 in 10.0 mi Calm Calm - N/A   Overcast
5:12 AM 75.2 °F - 73.4 °F 94% 30.13 in 5.0 mi SSE 3.5 mph - N/A   Overcast
5:25 AM 75.2 °F - 73.4 °F 94% 30.13 in 1.8 mi Calm Calm - N/A   Overcast
5:34 AM 73.4 °F - 73.4 °F 100% 30.14 in 1.2 mi Calm Calm - N/A   Overcast
5:38 AM 73.4 °F - 73.4 °F 100% 30.14 in 2.0 mi Calm Calm - N/A   Overcast
5:53 AM 73.9 °F - 73.0 °F 97% 30.12 in 1.0 mi Calm Calm - N/A   Overcast
6:22 AM 75.2 °F - 73.4 °F 94% 30.15 in 1.5 mi Calm Calm - N/A   Overcast
6:53 AM 75.0 °F - 73.0 °F 94% 30.13 in 1.0 mi Calm Calm - N/A   Overcast
7:53 AM 73.9 °F - 73.0 °F 97% 30.14 in 1.0 mi Calm Calm - N/A   Overcast
8:22 AM 75.2 °F - 73.4 °F 94% 30.17 in 2.0 mi Calm Calm - N/A   Mostly Cloudy
8:53 AM 75.9 °F - 73.0 °F 91% 30.14 in 2.0 mi Calm Calm - N/A   Mostly Cloudy
9:53 AM 77.0 °F - 73.0 °F 88% 30.15 in 4.0 mi Calm Calm - N/A   Mostly Cloudy
10:12 AM 78.8 °F - 73.4 °F 83% 30.17 in 5.0 mi South 4.6 mph - N/A   Mostly Cloudy
10:53 AM 81.0 °F 86.2 °F 73.9 °F 79% 30.15 in 10.0 mi Calm Calm - N/A   Mostly Cloudy
11:53 AM 84.9 °F 91.4 °F 73.0 °F 67% 30.14 in 10.0 mi Calm Calm - N/A   Mostly Cloudy
12:53 PM 87.1 °F 93.6 °F 72.0 °F 61% 30.12 in 10.0 mi Calm Calm - N/A   Mostly Cloudy
1:22 PM 84.2 °F 90.9 °F 73.4 °F 70% 30.15 in 1.8 mi West 18.4 mph 25.3 mph 0.00 in Rain , Thunderstorm Thunderstorms and Rain
1:23 PM 82.4 °F 88.2 °F 73.4 °F 74% 30.15 in 1.0 mi West 19.6 mph 25.3 mph 0.00 in Rain , Thunderstorm Thunderstorms and Rain
1:28 PM 77.0 °F - 69.8 °F 78% 30.15 in 9.0 mi WNW 6.9 mph 25.3 mph 0.11 in Rain , Thunderstorm Thunderstorms and Rain
1:53 PM 80.1 °F 84.2 °F 73.0 °F 79% 30.12 in 9.0 mi Variable 3.5 mph - 0.26 in Rain , Thunderstorm Light Thunderstorms and Rain
2:32 PM 78.8 °F - 71.6 °F 78% 30.13 in 10.0 mi SSE 8.1 mph - 0.00 in   Mostly Cloudy
2:37 PM 78.8 °F - 71.6 °F 78% 30.13 in 10.0 mi SSE 4.6 mph - 0.00 in Thunderstorm Thunderstorm
2:53 PM 79.0 °F - 73.0 °F 82% 30.11 in 7.0 mi NNE 6.9 mph - 0.07 in Rain , Thunderstorm Thunderstorms and Rain
3:02 PM 80.6 °F 84.6 °F 71.6 °F 74% 30.14 in 10.0 mi East 3.5 mph - 0.00 in   Mostly Cloudy
3:53 PM 84.9 °F 93.3 °F 75.0 °F 72% 30.09 in 10.0 mi ESE 6.9 mph - 0.00 in   Mostly Cloudy
4:53 PM 86.0 °F 93.0 °F 73.0 °F 65% 30.06 in 10.0 mi SSE 6.9 mph - N/A   Mostly Cloudy
5:53 PM 87.1 °F 94.5 °F 73.0 °F 63% 30.06 in 10.0 mi South 5.8 mph - N/A   Mostly Cloudy
6:53 PM 84.9 °F 90.1 °F 71.1 °F 63% 30.07 in 10.0 mi Calm Calm - N/A   Mostly Cloudy
7:53 PM 82.9 °F 88.8 °F 73.0 °F 72% 30.08 in 10.0 mi Calm Calm - N/A   Mostly Cloudy
8:10 PM 84.2 °F 90.9 °F 73.4 °F 70% 30.10 in 10.0 mi Calm Calm - N/A Thunderstorm Thunderstorm
8:27 PM 84.2 °F 89.6 °F 71.6 °F 66% 30.11 in 1.5 mi Calm Calm - 0.00 in Rain , Thunderstorm Light Thunderstorms and Rain
8:37 PM 80.6 °F 86.2 °F 75.2 °F 84% 30.13 in 1.0 mi WNW 16.1 mph 21.9 mph 0.04 in Rain , Thunderstorm Heavy Thunderstorms and Rain
8:40 PM 77.0 °F - 73.4 °F 89% 30.13 in 0.8 mi WNW 16.1 mph 24.2 mph 0.11 in Rain , Thunderstorm Heavy Thunderstorms and Rain
8:53 PM 75.0 °F - 69.1 °F 82% 30.11 in 1.5 mi Variable 5.8 mph - 0.61 in Rain , Thunderstorm Heavy Thunderstorms and Rain
8:57 PM 73.4 °F - 69.8 °F 88% 30.14 in 6.0 mi NE 4.6 mph - 0.07 in Rain , Thunderstorm Thunderstorms and Rain
9:22 PM 73.4 °F - 69.8 °F 88% 30.13 in 6.0 mi ESE 6.9 mph - 0.12 in Rain , Thunderstorm Light Thunderstorms and Rain
9:47 PM 75.2 °F - 71.6 °F 89% 30.13 in 6.0 mi East 3.5 mph - 0.12 in   Mostly Cloudy
9:53 PM 73.9 °F - 71.1 °F 91% 30.11 in 6.0 mi Calm Calm - 0.12 in   Mostly Cloudy
10:53 PM 73.9 °F - 71.1 °F 91% 30.12 in 6.0 mi Calm Calm - N/A   Mostly Cloudy
11:53 PM 73.9 °F - 72.0 °F 93% 30.12 in 6.0 mi Calm Calm - N/A   Mostly Cloudy